Regional Weather Roundup
Issued by NWS

Home | Current Version | Previous Version | Text Only | Print | Product List | Glossary Off
Versions: 1 2 3 4 5 6 7 8 9 10 11 12 13 14 15 16 17 18 19 20 21 22 23 24 25 26 27 28 29 30 31 32 33 34 35 36 37 38 39 40 41 42 43 44 45 46 47 48 49 50

000
ASUS43 KDMX 260606
RWRIA

WEATHER ROUNDUP FOR IOWA
NATIONAL WEATHER SERVICE DES MOINES IA
100 AM CDT SAT MAY 26 2018

NOTE: "FAIR" INDICATES FEW OR NO CLOUDS BELOW 12,000 FEET WITH NO
SIGNIFICANT WEATHER AND/OR OBSTRUCTIONS TO VISIBILITY.

* - THESE STATIONS ARE NOT NWS STATIONS...THUS NOT UNDER NWS
QUALITY CONTROL.  THEY ALSO DO NOT REPORT WEATHER SUCH
AS PRECIPITATION OR FOG.

IAZ001>003-012>014-020>022-031>034-043>046-260700-
   NORTHWEST IOWA

CITY           SKY/WX    TMP DP  RH WIND       PRES   REMARKS
CARROLL *      CLEAR     68  55  64 NW6       29.75F
CHEROKEE *     CLEAR     66  59  79 CALM      29.77S
DENISON *      CLEAR     72  57  60 E5        29.77F
LE MARS *      CLEAR     72  57  60 W5        29.76S
ORANGE CITY *  CLEAR     70  55  60 CALM      29.77S
SHELDON *      CLEAR     66  55  68 S5        29.76R
SIOUX CITY     CLEAR     72  57  59 SE6       29.75S
6HR MIN TEMP:  71; 6HR MAX TEMP:  92;

SPENCER        CLEAR     65  59  81 S3        29.76S
6HR MIN TEMP:  64; 6HR MAX TEMP:  91;

STORM LAKE *   CLEAR     70  57  64 S7        29.77F
$$

IAZ055>058-069>071-079>083-090>094-260700-
   SOUTHWEST IOWA

CITY           SKY/WX    TMP DP  RH WIND       PRES   REMARKS
ATLANTIC *     PTCLDY    70  63  78 CALM      29.75F
AUDUBON *      PTCLDY    68  63  83 CALM      29.78S
CLARINDA *     CLOUDY    75  61  60 S9        29.78F
COUNCIL BLFS * CLOUDY    75  63  64 CALM      29.75S
CRESTON *      MOCLDY    77  61  57 SW14      29.79F
HARLAN  *      CLEAR     73  63  68 VRB3      29.79S
LAMONI         CLEAR     71  65  81 S9        29.78F
6HR MIN TEMP:  71; 6HR MAX TEMP:  84;

RED OAK *      PTCLDY    73  63  68 S6        29.75F
SHENANDOAH *   CLEAR     77  63  61 S10       29.75S
$$

IAZ047>049-059>061-072>074-084-260700-
   CENTRAL IOWA

CITY           SKY/WX    TMP DP  RH WIND       PRES   REMARKS
AMES           PTCLDY    69  66  90 NE3       29.74F
6HR MIN TEMP:  69; 6HR MAX TEMP:  75; 6HR PCP:  0.02;

ANKENY *       CLEAR     75  66  73 SW7       29.75F
BOONE *        PTCLDY    70  68  94 CALM      29.74F
CHARITON *     CLEAR     73  66  78 SW9       29.75F
DES MOINES     PTCLDY    75  66  73 SW7       29.73F
6HR MIN TEMP:  75; 6HR MAX TEMP:  86;

GRINNELL*      PTCLDY    74  65  75 S8        29.78R
KNOXVILLE *    CLEAR     72  66  83 S9        29.74F
MARSHALLTOWN   CLOUDY    69  66  90 E13       29.77F
6HR MIN TEMP:  69; 6HR MAX TEMP:  74; 6HR PCP:  0.62;

NEWTON *       CLEAR     72  66  83 S8        29.75F
PELLA *        PTCLDY    71  66  83 S7        29.76F
PERRY *        FAIR      73  64  71 SW9       29.74F
$$

IAZ004>006-015-016-023>025-035-036-260700-
   NORTH CENTRAL IOWA

CITY           SKY/WX    TMP DP  RH WIND       PRES   REMARKS
ALGONA *       CLEAR     68  63  83 SE9       29.76S
CLARION *      CLEAR     72  63  73 SE7       29.75F
ESTHERVILLE    CLEAR     66  62  87 S8        29.76R
6HR MIN TEMP:  65; 6HR MAX TEMP:  85;

FORT DODGE *   CLEAR     67  60  78 E5        29.75F
MASON CITY     CLEAR     67  63  87 SE7       29.78S
6HR MIN TEMP:  67; 6HR MAX TEMP:  88;

FOREST CITY *  FAIR      63  61  94 E3        29.76S
WEBSTER CITY * CLEAR     72  64  78 SE10      29.72F
IOWA FALLS *   FAIR      70  64  81 SE10      29.77F
$$

IAZ007>011-017>019-026>030-037>042-050>054-066-260700-
   NORTHEAST IOWA

CITY           SKY/WX    TMP DP  RH WIND       PRES   REMARKS
CEDAR RAPIDS   MOCLDY    67  61  81 NE15      29.82R
6HR MIN TEMP:  64; 6HR MAX TEMP:  83; 6HR PCP: TRACE;

CHARLES CITY * FAIR      64  61  88 SE9       29.77F
CLINTON *      FAIR      65  62  90 W9        29.78S
DECORAH *      MOCLDY    63  63 100 S7        29.75F
DUBUQUE        LGT RAIN  66  59  78 NW9       29.80F
6HR MIN TEMP:  62; 6HR MAX TEMP:  79; 6HR PCP:  0.44;

MONTICELLO *   CLOUDY    64  64 100 S6        29.79F
OELWEIN *      CLOUDY    64  63  94 S12       29.79F
WATERLOO       FAIR      66  63  90 SE12      29.77F
6HR MIN TEMP:  63; 6HR MAX TEMP:  83; 6HR PCP:  0.39;

$$

IAZ064-065-067-068-078-260700-
   EAST CENTRAL IOWA

CITY           SKY/WX    TMP DP  RH WIND       PRES   REMARKS
DAVENPORT      FAIR      65  62  90 SW8       29.81R
6HR MIN TEMP:  64; 6HR MAX TEMP:  81; 6HR PCP:  0.09;

IOWA CITY      FAIR      65  62  90 SE6       29.79F
6HR MIN TEMP:  65; 6HR MAX TEMP:  85;

MT. PLEASANT * CLOUDY    68  64  88 SE6       29.78F
MUSCATINE *    FAIR      70  61  73 E3        29.78F
QUAD CITIES    FAIR      67  63  87 N7        29.78F
6HR MIN TEMP:  67; 6HR MAX TEMP:  80; 6HR PCP:  0.03;

$$

IAZ062-063-075>077-085>089-095>099-260700-
   SOUTHEAST IOWA

CITY           SKY/WX    TMP DP  RH WIND       PRES   REMARKS
BURLINGTON     CLOUDY    66  64  93 S7        29.78F
6HR MIN TEMP:  65; 6HR MAX TEMP:  82;

FAIRFIELD *    CLOUDY    72  68  88 SW8       29.75F
FORT MADISON * PTCLDY    68  66  94 S5        29.80F
KEOKUK *       CLEAR     66  66 100 CALM      29.80S
OSKALOOSA *    FAIR      71  67  88 S13       29.77F
CENTERVILLE *  FAIR      68  68 100 CALM      29.81S
OTTUMWA        MOCLDY    72  68  87 S10       29.76F
6HR MIN TEMP:  71; 6HR MAX TEMP:  83; 6HR PCP:  0.30;

WASHINGTON *   CLOUDY    70  70 100 CALM      29.79F
$$

ABBREVIATIONS USED IN REMARKS
   TC - TEMPERATURES IN CELSIUS
  WCI - WIND CHILL INDEX
   HX - HEAT INDEX
  VSB - VISIBILITY
$$





USA.gov is the U.S. government's official web portal to all federal, state and local government web resources and services.